{"data":{"norad_id":52269,"intl_designator":"2022-041J","name":"STARLINK-3791","alt_names":[],"object_type":"PAYLOAD","status":"ACTIVE","operator":null,"country":"US","launch_date":"2022-04-21","launch_site_code":"AFETR","launch_vehicle":null,"mission":null,"orbit_class":"UNKNOWN","rcs_meters":null,"size_class":null,"mass_kg":null,"dimensions":null,"purposes":["comms"],"wikipedia_slug":null,"has_3d_model":false,"image_url":null,"decayed_at":null,"tle_current":{"epoch":"2026-05-25T04:49:09.748992Z","epoch_age_seconds":53570,"freshness":"FRESH","line1":"1 52269U 22041J   26145.20080728  .00000789  00000+0  67670-4 0  9991","line2":"2 52269  53.2133 125.6503 0001121  86.5153 273.5968 15.08839907225917","mean_motion":15.08839907,"eccentricity":0.0001121,"inclination_deg":53.2133,"raan_deg":125.6503,"arg_perigee_deg":86.5153,"mean_anomaly_deg":273.5968,"bstar":6.767e-5,"rev_number":22591,"period_min":95.437560560227,"perigee_km":538.96817880445,"apogee_km":540.51916765138,"semimajor_km":6917.8806732279,"source":"CELESTRAK","updated_at":"2026-05-25T13:38:17.081467Z"}}}